Hourly Weather Allmend

Today, 29 November, Sunday

Time Temperature Precipitation Wind Pressure Humidity
00:00 0°C° 0 mm 1 mps 688 mmHg 82%
01:00 0°C° 0 mm 1 mps 688 mmHg 83%
02:00 0°C° 0 mm 1 mps 688 mmHg 84%
03:00 0°C° 0 mm 1 mps 688 mmHg 85%
04:00 0°C° 0 mm 1 mps 688 mmHg 86%
05:00 0°C° 0 mm 1 mps 688 mmHg 86%
06:00 0°C° 0 mm 1 mps 688 mmHg 86%
07:00 0°C° 0 mm 1 mps 688 mmHg 86%
08:00 0°C° 0 mm 1 mps 688 mmHg 83%
09:00 +1°C° 0 mm 1 mps 689 mmHg 80%
10:00 +1°C° 0 mm 1 mps 689 mmHg 77%
11:00 +2°C° 0 mm 1 mps 689 mmHg 75%
12:00 +2°C° 0 mm 1 mps 689 mmHg 73%
13:00 +2°C° 0 mm 2 mps 689 mmHg 71%
14:00 +2°C° 0 mm 1 mps 689 mmHg 74%
15:00 +2°C° 0 mm 1 mps 689 mmHg 77%
16:00 +1°C° 0 mm 1 mps 689 mmHg 80%
17:00 +1°C° 0 mm 1 mps 689 mmHg 82%
18:00 0°C° 0 mm 1 mps 689 mmHg 84%
19:00 -2°C° 0 mm 0 mps 690 mmHg 87%
20:00 -2°C° 0 mm 0 mps 690 mmHg 86%
21:00 -2°C° 0 mm 0 mps 690 mmHg 85%
22:00 -2°C° 0 mm 0 mps 690 mmHg 84%
23:00 -2°C° 0 mm 0 mps 691 mmHg 84%

Tomorrow, 30 November, Monday

Time Temperature Precipitation Wind Pressure Humidity
00:00 -2°C° 0 mm 0 mps 691 mmHg 83%
01:00 -2°C° 0 mm 0 mps 691 mmHg 83%
02:00 -2°C° 0 mm 0 mps 691 mmHg 82%
03:00 -2°C° 0 mm 0 mps 691 mmHg 82%
04:00 -3°C° 0 mm 0 mps 691 mmHg 81%
05:00 -3°C° 0 mm 0 mps 691 mmHg 82%
06:00 -3°C° 0 mm 0 mps 691 mmHg 83%
07:00 -3°C° 0 mm 0 mps 691 mmHg 84%
08:00 -2°C° 0 mm 0 mps 692 mmHg 79%
09:00 -1°C° 0 mm 0 mps 692 mmHg 74%
10:00 0°C° 0 mm 0 mps 693 mmHg 68%
11:00 +1°C° 0 mm 0 mps 693 mmHg 65%
12:00 +3°C° 0 mm 1 mps 693 mmHg 62%
13:00 +4°C° 0 mm 1 mps 693 mmHg 59%
14:00 +2°C° 0 mm 0 mps 692 mmHg 65%
15:00 +1°C° 0 mm 0 mps 692 mmHg 71%
16:00 0°C° 0 mm 0 mps 692 mmHg 77%
17:00 -1°C° 0 mm 0 mps 692 mmHg 79%
18:00 -1°C° 0 mm 0 mps 692 mmHg 81%
19:00 -2°C° 0 mm 0 mps 692 mmHg 82%
20:00 -2°C° 0 mm 0 mps 692 mmHg 81%
21:00 -1°C° 0 mm 1 mps 692 mmHg 79%
22:00 -1°C° 0 mm 1 mps 692 mmHg 77%
23:00 -1°C° 0 mm 1 mps 692 mmHg 75%

Day after tomorrow, 1 December, Tuesday

Time Temperature Precipitation Wind Pressure Humidity
00:00 -1°C° 0 mm 1 mps 691 mmHg 74%
01:00 -1°C° 0 mm 1 mps 691 mmHg 72%
02:00 -1°C° 0 mm 1 mps 691 mmHg 68%
03:00 0°C° 0 mm 1 mps 690 mmHg 64%
04:00 0°C° 0 mm 1 mps 690 mmHg 60%
05:00 0°C° 0.1 mm 1 mps 690 mmHg 61%
06:00 +1°C° 0.1 mm 1 mps 690 mmHg 62%
07:00 +1°C° 0.1 mm 1 mps 689 mmHg 63%
08:00 +2°C° 0.1 mm 1 mps 689 mmHg 62%
09:00 +3°C° 0.1 mm 1 mps 688 mmHg 61%
10:00 +3°C° 0.1 mm 1 mps 688 mmHg 60%
11:00 +4°C° 0 mm 1 mps 688 mmHg 61%
12:00 +5°C° 0 mm 1 mps 687 mmHg 62%
13:00 +5°C° 0 mm 1 mps 687 mmHg 64%
14:00 +4°C° 0.9 mm 1 mps 687 mmHg 75%
15:00 +2°C° 0.9 mm 0 mps 686 mmHg 85%
16:00 +1°C° 0.9 mm 0 mps 686 mmHg 96%
17:00 +1°C° 0.7 mm 0 mps 686 mmHg 96%
18:00 +1°C° 0.7 mm 0 mps 686 mmHg 97%
19:00 0°C° 0.7 mm 0 mps 686 mmHg 97%
20:00 0°C° 0.1 mm 0 mps 686 mmHg 96%
21:00 0°C° 0.1 mm 0 mps 686 mmHg 96%
22:00 0°C° 0.1 mm 0 mps 687 mmHg 96%
23:00 0°C° 0.1 mm 0 mps 687 mmHg 96%

2 December, Wednesday

Time Temperature Precipitation Wind Pressure Humidity
00:00 +1°C° 0.1 mm 1 mps 687 mmHg 96%
01:00 +1°C° 0.1 mm 1 mps 687 mmHg 95%
02:00 +1°C° 0.1 mm 1 mps 687 mmHg 94%
03:00 +1°C° 0.1 mm 1 mps 686 mmHg 93%
04:00 +1°C° 0.1 mm 1 mps 686 mmHg 92%
05:00 0°C° 0 mm 1 mps 686 mmHg 92%
06:00 0°C° 0 mm 1 mps 686 mmHg 91%
07:00 0°C° 0 mm 1 mps 686 mmHg 90%
08:00 0°C° 0 mm 1 mps 686 mmHg 89%
09:00 +1°C° 0 mm 1 mps 686 mmHg 88%
10:00 +1°C° 0 mm 1 mps 686 mmHg 87%
11:00 +1°C° 0 mm 1 mps 685 mmHg 86%
12:00 +1°C° 0 mm 1 mps 685 mmHg 86%
13:00 +1°C° 0 mm 1 mps 685 mmHg 86%
14:00 +1°C° 0 mm 1 mps 685 mmHg 88%
15:00 +1°C° 0 mm 1 mps 685 mmHg 89%
16:00 +1°C° 0 mm 1 mps 684 mmHg 91%
17:00 0°C° 0 mm 1 mps 685 mmHg 91%
18:00 -1°C° 0 mm 0 mps 685 mmHg 92%
19:00 -2°C° 0 mm 0 mps 685 mmHg 92%
20:00 -2°C° 0 mm 0 mps 685 mmHg 92%
21:00 -2°C° 0 mm 0 mps 685 mmHg 92%
22:00 -3°C° 0 mm 0 mps 685 mmHg 92%
23:00 -3°C° 0 mm 0 mps 684 mmHg 92%

3 December, Thursday

Time Temperature Precipitation Wind Pressure Humidity
00:00 -3°C° 0 mm 0 mps 684 mmHg 92%
01:00 -3°C° 0 mm 0 mps 684 mmHg 92%
02:00 -3°C° 0 mm 0 mps 683 mmHg 92%
03:00 -3°C° 0 mm 0 mps 683 mmHg 92%
04:00 -3°C° 0 mm 0 mps 682 mmHg 92%
05:00 -3°C° 0 mm 0 mps 682 mmHg 92%
06:00 -3°C° 0 mm 0 mps 682 mmHg 91%
07:00 -3°C° 0 mm 0 mps 682 mmHg 90%
08:00 -2°C° 0 mm 0 mps 681 mmHg 88%
09:00 -2°C° 0 mm 0 mps 681 mmHg 85%
10:00 -1°C° 0 mm 0 mps 681 mmHg 82%
11:00 -1°C° 0 mm 0 mps 680 mmHg 80%
12:00 +1°C° 0 mm 1 mps 680 mmHg 78%
13:00 +2°C° 0 mm 1 mps 679 mmHg 76%
14:00 +1°C° 0 mm 1 mps 679 mmHg 79%
15:00 +1°C° 0 mm 1 mps 678 mmHg 81%
16:00 -1°C° 0 mm 0 mps 678 mmHg 83%
17:00 0°C° 0 mm 1 mps 677 mmHg 85%
18:00 0°C° 0 mm 1 mps 677 mmHg 86%
19:00 -1°C° 0 mm 1 mps 677 mmHg 87%
20:00 -1°C° 0 mm 1 mps 677 mmHg 88%
21:00 -2°C° 0 mm 1 mps 676 mmHg 89%
22:00 -2°C° 0 mm 1 mps 676 mmHg 90%
23:00 -2°C° 0 mm 1 mps 675 mmHg 90%

4 December, Friday

Time Temperature Precipitation Wind Pressure Humidity
00:00 -2°C° 0 mm 1 mps 675 mmHg 90%
01:00 -2°C° 0 mm 1 mps 675 mmHg 90%
02:00 -2°C° 0 mm 1 mps 674 mmHg 89%
03:00 -2°C° 0 mm 1 mps 674 mmHg 88%
04:00 -2°C° 0 mm 1 mps 674 mmHg 87%
05:00 -2°C° 0 mm 1 mps 673 mmHg 87%
06:00 -2°C° 0 mm 1 mps 673 mmHg 86%
07:00 -1°C° 0 mm 1 mps 673 mmHg 86%
08:00 0°C° 0 mm 1 mps 673 mmHg 83%
09:00 +1°C° 0 mm 1 mps 673 mmHg 80%
10:00 +2°C° 0 mm 1 mps 673 mmHg 77%
11:00 +2°C° 0 mm 1 mps 673 mmHg 75%
12:00 +2°C° 0 mm 2 mps 673 mmHg 73%
13:00 +3°C° 0 mm 2 mps 672 mmHg 71%
14:00 +3°C° 0 mm 2 mps 671 mmHg 74%
15:00 +2°C° 0 mm 2 mps 671 mmHg 77%
16:00 +1°C° 0 mm 2 mps 670 mmHg 81%
17:00 -1°C° 0.1 mm 2 mps 670 mmHg 82%
18:00 -1°C° 0.1 mm 2 mps 670 mmHg 84%
19:00 -2°C° 0.1 mm 2 mps 669 mmHg 85%
20:00 -2°C° 0.2 mm 2 mps 670 mmHg 87%
21:00 0°C° 0.2 mm 1 mps 670 mmHg 89%
22:00 0°C° 0.2 mm 1 mps 670 mmHg 91%
23:00 0°C° 0.6 mm 1 mps 671 mmHg 93%
Show more